Regional Weather Roundup
Issued by NWS Wakefield, VA

Home | Current Version | Previous Version | Graphics & Text | Print | Product List | Glossary On
Versions: 1 2 3 4 5 6 7 8 9 10 11 12 13 14 15 16 17 18 19 20 21 22 23 24 25 26 27 28 29 30 31 32 33 34 35 36 37 38 39 40 41 42 43 44 45 46 47 48 49 50
000
ASUS41 KAKQ 250815
RWRAKQ

REGIONAL WEATHER ROUNDUP
NATIONAL WEATHER SERVICE WAKEFIELD VA
400 AM EDT MON MAY 25 2015

Note: "fair" indicates few or no clouds below 12,000 feet with no
significant weather and/or obstructions to visibility. * = Denotes
station may not report precipitation (e.g., rain,snow,etc.),
thunder or fog.

VAZ042-051-052>054-056-250900-
NORTHERN VIRGINIA

CITY           SKY/WX    TMP DP  RH WIND       PRES   REMARKS
WASH NATIONAL  PTCLDY    69  59  70 S9        30.26R
DULLES         CLEAR     63  55  75 S5        30.25R
FORT BELVOIR   CLEAR     58  56  91 SE2       30.26R
QUANTICO       CLEAR     67  56  67 SW9       30.27R
FREDERICKSBRG* CLEAR     65  58  75 CALM      30.26S
STAFFORD*      CLEAR     62  55  80 S3        30.30S
WARRENTON      CLEAR     64  58  79 S6        30.25S
CULPEPER*      CLEAR     56  54  94 CALM      30.26R
MANASSAS*      CLEAR     61  57  88 S5        30.25S
LEESBURG*      CLEAR     59  57  94 CALM      30.26R
WINCHESTER     CLEAR     63  50  63 SW3       30.23F
FRONT ROYAL*   FAIR      63  54  72 S7        30.23S
LURAY*         FAIR      63  55  77 CALM      30.25S
$$

VAZ048-049-060>072-079>083-250900-
CENTRAL AND SOUTH CENTRAL VIRGINIA

CITY           SKY/WX    TMP DP  RH WIND       PRES   REMARKS
RICHMOND       CLEAR     66  56  70 S8        30.29S
CHESTERFIELD*  NOT AVBL
PETERSBURG*    CLEAR     64  57  76 S5        30.31R
HANOVER        CLEAR     65  56  72 S8        30.30S
TAPPAHANNOCK*  CLEAR     64  53  68 S5        30.29S
QUINTON*       FAIR      65  57  75 SE5       30.29S
CHARLOTTSVILLE CLEAR     62  54  74 S7        30.26S
GORDONSVILLE*  FAIR      55  54  95 CALM      30.26F
ORANGE*        CLEAR     61  55  82 CALM      30.27F
LOUISA*        CLEAR     57  54  88 CALM      30.26F
BUMPASS*       FAIR      60  55  83 SW3       30.27S
FARMVILLE*     CLEAR     63  56  77 SW6       30.28S
CREWE*         FAIR      60  56  87 CALM      30.30S
FORT PICKETT*  FAIR     N/A N/A N/A S3        30.31R
CHASE CITY*    FAIR      65  60  84 CALM      30.31S
CLARKSVILLE*   FAIR      61  57  88 S5        30.30S
SOUTH HILL*    CLEAR     58  55  89 CALM      30.37S
LAWRENCEVILLE* FAIR      63  57  82 S3        30.31S
EMPORIA*       CLEAR     59  55  88 CALM      30.33S
$$

VAZ088>098-250900-
SOUTHEAST VIRGINIA

CITY           SKY/WX    TMP DP  RH WIND       PRES   REMARKS
NORFOLK        CLEAR     63  56  78 SW7       30.32R
VIRGINIA BEACH PTCLDY    65  57  75 S6        30.32R
NORFOLK NAVAL  PTCLDY    70  57  63 VRB6      30.33R
WEST POINT*    CLEAR     68  56  63 S5        30.32S
SALUDA*        FAIR      64  56  75 S7        30.29S
NEWPORT NEWS   CLEAR     70  58  65 SW12      30.31S
LANGLEY AFB    CLEAR     66  58  75 SW8       30.30S
FORT EUSTIS    CLEAR     66  58  74 S6        30.29S
WILLIAMSBURG*  CLEAR     68  59  73 SW6       30.32S
HR EXEC AP*    FAIR      57  52  82 S3        30.34R
FRANKLIN*      CLEAR     60  56  87 S5        30.33R
WAKEFIELD      CLEAR     61  56  83 CALM      30.32R
$$

VAZ020-022-025-037-045-250900-
WEST CENTRAL AND SOUTHWEST VIRGINIA

CITY           SKY/WX    TMP DP  RH WIND       PRES   REMARKS
STAUNTON*      CLEAR     56  53  86 CALM      30.28S
WAYNESBORO*    FAIR      57  52  83 CALM      30.27F
HOT SPRINGS VA CLEAR     60  49  68 S12G20    30.33S
LYNCHBURG      CLEAR     59  54  83 SW6       30.31R
DANVILLE       CLEAR     58  53  84 CALM      30.31S
SOUTH BOSTON*  FAIR      63  56  78 SW5       30.31S
MARTINSVILLE   CLEAR     52  52 100 CALM      30.33S
ROANOKE        CLEAR     56  53  90 CALM      30.31R
BLACKSBURG     CLEAR     59  52  77 S5        30.34S
DUBLIN*        CLEAR     53  52  95 CALM      30.32S
MARION*        CLEAR     60  50  70 CALM      30.33S
HILLSVILLE*    CLEAR     59  54  82 S12       30.33S
RICHLANDS*     FAIR      61  51  70 SE8       30.27F
WISE*          PTCLDY    61  46  59 S8        30.28S
ABINGDON*      PTCLDY    57  51  81 CALM      30.27S
$$

MDZ021>025-VAZ099-100-250900-
SOUTHERN MARYLAND AND THE DELMARVA PENINSULA

CITY           SKY/WX    TMP DP  RH WIND       PRES   REMARKS
PATUXENT RIVER CLEAR     67  56  67 SW10      30.27R
BAY BRIDGE APT   N/A    N/A N/A N/A S6        30.26S
LEONARDTOWN    CLEAR     64  55  72 SW7       30.29R
DOVER          CLEAR     63  63  99 SW9       30.24R
GEORGETOWN     CLEAR     60  55  83 SW6       30.29R
EASTON         CLEAR     68  62  82 SW7       30.30S
CAMBRIDGE      CLEAR     70  59  68 S6        30.27S
SALISBURY      CLEAR     58  55  90 S3        30.29R
OCEAN CITY     CLEAR     64  59  83 SW8       30.30R
WALLOPS ISLAND CLEAR     59  59 100 SW6       30.31R
ACCOMACK*      CLEAR     63  46  55 S8        30.31R
$$

NCZ012>017-030>032-250900-
NORTH CENTRAL AND EASTERN NORTH CAROLINA

CITY           SKY/WX    TMP DP  RH WIND       PRES   REMARKS
ROANOKE RAPIDS FAIR      59  55  88 CALM      30.32S
RALEIGH        PTCLDY    65  57  75 SW6       30.32F
ELIZABETH CITY CLEAR     64  60  87 S3        30.34R
AHOSKIE*       CLEAR     57  55  92 S3        30.33S
EDENTON*       CLEAR     66  60  81 SW6       30.33S
CURRITUCK*     CLEAR     62  58  88 CALM      30.34S
KILL DEVIL HLS CLEAR     66  58  74 CALM      30.33S
MANTEO         CLEAR     61  57  85 CALM      30.34S
CAPE HATTERAS  CLEAR     57  54  89 CALM      30.34S
TARBORO*       FAIR      58  57  96 CALM      30.34S
GOLDSBORO      CLEAR     60  57  91 CALM      30.31S
WASHINGTON     CLEAR     61  58  91 CALM      30.34S
GREENVILLE     CLEAR     63  59  88 CALM      30.34R
NEW BERN       CLEAR     59  56  89 CALM      30.35S
WILMINGTON     CLEAR     61  59  93 CALM      30.32S
$$

VAZ048-250900-
ELSEWHERE

CITY           SKY/WX    TMP DP  RH WIND       PRES   REMARKS
HARRISBURG PA  MOCLDY    65  57  75 CALM      30.22S
BALTIMORE      CLEAR     59  57  93 CALM      30.25S
ANNAPOLIS      CLEAR     66  58  75 CALM      30.25S
ANDREWS AFB    CLEAR     65  57  77 S9        30.25S
PHILADELPHIA   CLOUDY    65  56  72 S6        30.27S
HENDERSON NC   CLEAR     61  55  80 S6        30.32S
GREENSBORO     PTCLDY    63  54  72 S8        30.31S
ROCKY MOUNT    CLEAR     60  58  92 CALM      30.33S
$$

VAZ100-250900-
MARINE

STATION/POSITION TIME  TEMP    WIND        PRES    WAVE   SWELL
                       AIR SEA DIR/SP/G            HT/PER HT/PER
                 (UTC) (F)     (DEG/KT/KT) (MB)    (FT/S) (FT/S)
BRANDYWINE LGT   0700   65 63  220/ 11/ 13 1025.2F
CAPE MAY NJ      0700   61 67  140/  3/  5 1024.9F
LEWES DE         0700   65 62  230/  8/ 12 1024.9F
15NM E FENWICK I 0750   61 60              1025.5R   2/ 4
OCEAN-CITY-INLET 0700   63 61  210/ 10/ 11 1025.3F
WACHAPREAGUE VA  0700   65 68  230/  5/  8 1026.2S
THOMAS POINT MD  0800   67 66  200/ 12/ 13 1025.0S
GOOSES REEF MD   0800   67 66  220/ 10/ 12 1025.8R   2/ 3
SOLOMONS ISLAND  0700      70                N/A
BISHOPS HEAD MD  0700   68 71  210/ 10/ 11 1025.0S
PINEY POINT MD   0700          230/ 13/ 15   N/A
CAMBRIDGE MD     0700   67 70  200/  4/  6 1024.8S
LEWISETTA VA     0700   68 70              1024.8F
RAPPAHANNOCK LGT 0700          210/ 16/ 17 1026.3F
STINGRAY PT      0700   69 69  220/ 12/ 14 1025.3S   1/ 3
YORK RVR RNG VA  0700   69     230/ 14/ 16 1025.3S
YORKTOWN VA      0700   68 71  230/  7/ 12 1025.9S
JAMESTOWN VA     0800   65 73  220/ 10/ 14 1025.2R
DOMINION TERM VA 0700   68     220/ 11/ 13 1026.4F
KIPTOPEKE VA     0700      72  210/ 10/ 12   N/A
CHES BAY BRIDGE  0700   67 68  190/ 12/ 14 1025.9S
CAPE HENRY VA    0700   66     200/  9/ 13 1025.1S
CHESAPEAKE LGHT  0700   65     190/ 15/ 15 1026.9F
WILLOUBY STN VA  0700   68     220/ 12/ 13 1026.9F
CAPE HENRY BUOY  0728      66                N/A     2/ 3
1ST LANDING BUOY 0800      67              1026.3R
CAPE CHARLES BUO 0726      66                N/A     2/ 3   2/ 8
OFFSHORE WE BUOY 0711      61                N/A     2/ 3   2/ 8
64NM E OF VA BCH 0750   64 62  200/  6/  6 1026.9R   1/ 9   2/ 9
DUCK PIER NC     0700   66 62  170/  7/  8 1026.0F
44100 DUCK FRF   0724      64                N/A     1/ 8
44056 DUCK FRF   0711      63                N/A     1/ 8
OREGON INLET NC  0700   65 74  130/  4/  5 1027.1F
HATTERAS NC      0700   72 75  140/  3/  3 1026.7F
DIAMOND SHLS NC  0750   73 77  170/  8/ 10 1027.3R   2/ 6   2/ 6
CAPE LOOKOUT NC  0800   72     140/  7/  8 1027.0R
$$



USA.gov is the U.S. government's official web portal to all federal, state and local government web resources and services.